www.pogodaiklimat.ru

Погода и климат >> Архив погоды >> Россия >> Камчатский край >> Петропавловск-Камчатский


АРХИВ ПОГОДЫ в Петропавловск-Камчатском

Время (UTC), дата Ветер
(напр.,м/с)
 
Видим.   Явления Облачность Т
(С)
Тd
(С)
f
(%)
Тe
(С)
Тes
(С)
Комфортность P
(гПа)
Po
(гПа)
Тmin
(С)
Tmax
(С)
R
(мм)
R24
(мм)
S
(см)
00 16.01 СЗ 6 2000 м слабый ливневой снег 10/10 600 м
[Cb cap]
-9.8 -11.7 86 -18 -18 прохладно 1003.4 1000.3 -10.7
03 16.01 СЗ 5 20 км {ливн. осадки} 10/8 600 м
[Sc Ci fib]
-8.3 -11.2 80 -16 -16 прохладно 1002.5 999.4
06 16.01 С 3 50 км {ливн. осадки} 4/3 1000 м
[Sc Ac As Ci fib]
-7.2 -11.2 73 -13 -13 по сезону 1003.1 1000.0
09 16.01 С 3 50 км 9/0
[Ci fib]
-7.7 -13.0 66 -13 -13 по сезону 1004.0 1000.9 -6.8 2
12 16.01 С 3 50 км 4/0
[Ci fib]
-8.1 -13.9 63 -14 -14 по сезону 1004.3 1001.2
15 16.01 С 5 50 км ясно -9.1 -14.6 64 -17 -17 прохладно 1003.9 1000.8
18 16.01 С 5
{10}
50 км 3/0
[Ci fib]
-9.5 -16.5 57 -17 -17 по сезону 1003.8 1000.7
21 16.01 С 5
{11}
50 км ясно -9.6 -18.7 47 -17 -17 прохладно 1004.3 1001.2 -9.9 60
00 17.01 С 8-10
{10}
50 км ясно -8.4 -16.8 51 -18 -17 прохладно 1005.0 1001.8
03 17.01 СЗ 8-10
{12}
50 км 3/1 600 м
[Sc Ci fib]
-6.8 -16.8 45 -15 -15 по сезону 1004.5 1001.4
06 17.01 СЗ 11-13
{14}
50 км {метель} 3/1 600 м
[Sc Ci fib]
-7.1 -15.9 49 -17 -17 прохладно 1005.0 1001.9
09 17.01 СЗ 8-12
{14}
20 км 3/1 1000 м
[Sc Ci fib]
-7.7 -17.1 47 -17 -17 прохладно 1006.6 1003.5 -6.3
12 17.01 СЗ 10-12
{14}
50 км ясно -9.1 -17.7 50 -19 -19 холодно 1007.3 1004.2
15 17.01 СЗ 12-14
{16}
50 км ясно -8.9 -16.3 55 -20 -20 холодно 1007.9 1004.8
18 17.01 СЗ 10-12
{14}
50 км ясно -8.7 -16.3 54 -19 -19 прохладно 1009.3 1006.2
21 17.01 С 9-13
{17}
50 км ясно -9.1 -19.5 43 -19 -19 прохладно 1010.5 1007.3 -9.9 59
00 18.01 С 9-11
{13}
50 км ясно -8.0 -18.3 43 -17 -17 прохладно 1011.6 1008.5
03 18.01 СЗ 12-13
{16}
50 км ясно -6.6 -17.0 43 -17 -17 прохладно 1011.9 1008.8
06 18.01 СЗ 12-14
{15}
50 км 3/0
[Ac lent Ci fib]
-6.7 -15.8 48 -17 -17 прохладно 1012.1 1009.0
09 18.01 С 6-10
{14}
50 км 3/0
[Ci fib]
-8.1 -18.4 43 -16 -16 прохладно 1013.4 1010.2 -6.3
12 18.01 С 7
{10}
50 км 1/0
[Ci fib]
-8.4 -20.2 38 -17 -17 прохладно 1014.3 1011.1
15 18.01 С 5
{11}
50 км 3/0
[Ac trans Ci fib]
-9.4 -20.8 39 -17 -17 прохладно 1014.7 1011.5
18 18.01 С 5 50 км 1/0
[Ci fib]
-9.0 -22.1 34 -16 -16 по сезону 1014.7 1011.5
21 18.01 С 2 50 км 1/0
[Ac trans]
-9.5 -22.0 35 -14 -14 по сезону 1015.8 1012.6 -10.3 59
00 19.01 З 2 50 км 8/0
[Ci fib]
-10.6 -16.1 64 -15 -14 по сезону 1016.1 1013.0 -11.8
03 19.01 СЗ 4 50 км 10/0
[Ci fib]
-10.0 -18.4 50 -17 -16 прохладно 1015.4 1012.2
06 19.01 С 3 50 км 10/0
[Ac As Ci]
-9.6 -19.9 43 -15 -15 по сезону 1015.9 1012.7
09 19.01 ЮВ 1 20 км 10/1 600 м
[Sc Ac trans Ci fib]
-9.5 -17.6 52 -12 -12 по сезону 1015.6 1012.4 -9.3
12 19.01 СЗ 3 20 км 10/3 600 м
[Sc Ac trans Ci fib]
-8.3 -16.2 53 -14 -14 по сезону 1014.4 1011.3
15 19.01 СЗ 4 20 км 10/10 600 м
[Sc]
-7.9 -14.3 60 -14 -14 по сезону 1012.1 1009.0
18 19.01 С 3 20 км 10/10 600 м
[Sc]
-7.1 -14.7 55 -12 -12 по сезону 1010.3 1007.1
21 19.01 СЗ 6 20 км слабый снег 10/0 600 м
[As op]
-6.9 -10.8 74 -15 -15 по сезону 1007.7 1004.6 -9.5 0.0 59
00 20.01 С 5 10 км слабый снег 10/0 600 м
[As op]
-6.6 -8.9 84 -14 -14 по сезону 1004.4 1001.3
03 20.01 С 4 10 км слабый снег 10/0 600 м
[As op]
-4.7 -7.0 84 -11 -11 по сезону 1000.2 997.2
06 20.01 СВ 3
{11}
10 км слабый снег 10/0 600 м
[As op]
-1.2 -6.0 70 -6 -6 тепло 997.3 994.3
09 20.01 С 4
{14}
10 км слабый снег 10/0 600 м
[As op]
-2.0 -5.7 76 -8 -8 по сезону 994.9 991.9 +1.3 0.0
12 20.01 С 5 10 км слабый снег 10/10 300 м
[Frnb Ns]
-3.4 -5.2 87 -10 -10 по сезону 993.0 990.0
15 20.01 С 5 4000 м слабый снег 10/10 300 м
[Frnb Ns]
-2.7 -5.4 82 -9 -9 по сезону 991.1 988.1
18 20.01 С 5
{10}
1000 м сильный снег 10/0 600 м
[As op]
-4.0 -5.0 93 -11 -11 по сезону 990.0 987.0
21 20.01 С 5 2000 м снег 10/0 600 м
[As op]
-3.8 -5.1 91 -11 -11 по сезону 989.8 986.8 -4.4 13 71
00 21.01 С 6
{10}
1000 м снег 10/0 600 м
[As op]
-3.3 -4.5 91 -11 -11 по сезону 989.9 986.9
03 21.01 С 7
{10}
2000 м слабый снег 10/0 600 м
[As op]
-2.7 -4.1 90 -11 -10 по сезону 989.2 986.2
06 21.01 С 7-10
{11}
4000 м слабый снег {метель} 10/0 600 м
[As op]
-2.5 -3.9 90 -10 -10 по сезону 989.7 986.7
09 21.01 СЗ 11-15
{15}
10 км слабый снег {метель} 10/0 600 м
[As op]
-1.4 -6.9 66 -10 -10 по сезону 990.9 987.9 -1.4 8
12 21.01 З 12-15
{17}
10 км слабый снег {метель} 10/0 600 м
[As op]
-1.9 -8.4 61 -11 -11 по сезону 992.7 989.7
15 21.01 З 8-14
{16}
10 км слабый снег {метель} 4/0
[As op]
-2.6 -10.2 56 -10 -10 по сезону 995.9 992.9
18 21.01 З 3
{14}
50 км {снег, метель} ясно -3.9 -11.0 58 -9 -9 по сезону 999.4 996.3
21 21.01 В 1 50 км 1/1 600 м
[Sc]
-6.1 -13.0 58 -8 -8 по сезону 1001.3 998.2 -6.1 1 70
00 22.01 штиль 0 4000 м слабый ливневой снег 10/10 600 м
[Cb cap]
-6.3 -9.0 81 -7 -7 тепло 1001.4 998.3 -6.8
03 22.01 С 4
{10}
1000 м ливневой снег 10/10 600 м
[Cb cap]
-6.1 -7.6 89 -13 -13 по сезону 1003.2 1000.1
06 22.01 В 3 20 км {ливн. осадки} 9/3 600 м
[Sc Ac trans]
-4.0 -10.2 62 -9 -9 по сезону 1004.7 1001.6
09 22.01 ЮЗ 9-16
{17}
500 м крупа {ливн. осадки, метель} 10/10 600 м
[Cb cap]
-5.3 -6.5 91 -15 -15 по сезону 1003.0 1000.0 -3.6 8
12 22.01 ЮВ 2
{16}
50 км {гроза, ливн. осадки} ясно -6.6 -8.4 87 -11 -11 по сезону 1007.6 1004.5
15 22.01 штиль 0 50 км ясно -6.4 -11.7 66 -7 -7 тепло 1009.9 1006.8
18 22.01 Ю 2 50 км 1/0
[Ac trans]
-6.5 -14.3 54 -10 -10 по сезону 1012.1 1009.0
21 22.01 ЮЗ 1 20 км 3/3 600 м
[Sc]
-6.9 -13.9 57 -9 -9 по сезону 1014.9 1011.8 -7.9 2 86

 

Местоположение метеостанции Петропавловск-Камчатский (Камчатский край, Россия): широта 52.87 долгота 158.60 высота над уровнем моря 24 м.

В архиве по умолчанию представлена погода в Петропавловск-Камчатском за последнюю неделю. Архивные данные за месяц целиком и за предыдущие месяцы, начиная с января 2011 года, Вы можете получить, выбрав интересующий диапазон дат из раскрывающегося списка и нажав кнопку "Ввод!".

Внимание! Время в таблицах - всемирное. Для получения местного времени необходимо прибавить поправку, которая в Петропавловск-Камчатском равна 12 ч.

Смотрите также архив погоды в соседних городах и на ближайших метеорологических станциях:

Погода в Петропавловском Маяке (Камчатский край, Россия) (7 км)
Погода в Петропавловск-Камч. 2 (Камчатский край, Россия) (24 км)
Погода в Сосновке (Камчатский край, Россия) (31 км)
Погода в Начиках (Камчатский край, Россия) (66 км)
Погода в Водопадной (Камчатский край, Россия) (124 км)
Погода в Пущино (Камчатский край, Россия) (151 км)
Погода в Большерецке (Камчатский край, Россия) (155 км)
Погода в Семячике (Камчатский край, Россия) (163 км)
Погода в Мильково (Камчатский край, Россия) (201 км)
Погода в Озерной (Камчатский край, Россия) (215 км)

Пояснения к столбцам:

Ветер - указаны скорость ветра в м/с - средняя за 10 мин, порывы в срок и между сроками (в фигурных скобках) и направление, откуда дует ветер: С - северный, СВ - северо-восточный, В - восточный, ЮВ - юго-восточный, Ю - южный, ЮЗ - юго-западный, З - западный, СЗ - северо-западный.
Видимость - горизонтальная дальность видимости в метрах или километрах. При видимости от 1 до 10 км при отсутствии осадков обычно наблюдается дымка, при ухудшении видимости до 1 км и менее - туман. В сухую погоду видимость может ухудшаться дымом, пылью или мглою.
Явления - указаны атмосферные явления, наблюдавшиеся в срок или в последний час перед сроком; фигурными скобками обозначены явления, наблюдавшиеся между сроками (за 1-3 часа до срока); квадратными скобками обозначены град или гололедные отложения с указанием их диаметра в мм.
Облачность - указаны через наклонную черту общая и нижняя облачность в баллах и высота нижней границы облаков в метрах; квадратными скобками обозначены формы облаков: Ci - перистые, Cs - перисто-слоистые, Cc - перисто-кучевые, Ac - высококучевые, As - высокослоистые, Sc - слоисто-кучевые, Ns - слоисто-дождевые, Cu - кучевые, Cb - кучево-дождевые. Подробнее классификацию облаков см. в Атласе облаков (PDF).
T - Температура воздуха - температура, измеренная на высоте 2 м над землей.
Td - Температура точки росы - температура, при понижении до которой содержащийся в воздухе водяной пар достигнет насыщения.
f - Относительная влажность воздуха - влажноcть воздуха, измеренная на высоте 2 м над землей.
Te - Эффективная температура - температура, которую ощущает одетый по сезону человек в тени. Характеристика душности погоды. При расчете учитывается влияние влажности воздуха и скорости ветра на теплоощущения человека.
Tes - Эффективная температура на солнце - температура, которую ощущает человек, с поправкой на солнечный нагрев. Характеристика знойности погоды. Зависит от высоты солнца над горизонтом, облачности и скорости ветра. Ночью, в пасмурную погоду, а также при ветре 12 м/с и более поправка равна нулю.
P - Атмосферное давление - приведенное к уровню моря атмосферное давление.
Po - Атмосферное давление - измеренное на уровне метеостанции атмосферное давление.
Tmin - Минимальная температура - минимум температуры воздуха на высоте 2 м над землей.
Tmax - Максимальная температура - максимум температуры воздуха на высоте 2 м над землей.
R - Количество осадков - Количество выпавших осадков за период времени, мм. При наведении курсора мыши на число - период времени, за который выпало указанное количество осадков.
R24 - Количество осадков - Количество выпавших осадков за 24 часа, мм.
S - Снежный покров - Высота снежного покрова, см. При наведении курсора мыши на число - состояние снежного покрова и степень покрытия местности в баллах.